sat.trackr.live / text

‹ back to catalog

STARLINK-32913

NORAD 63098 · 2025-037X

PAYLOAD ACTIVE UNKNOWN

§ Identity

Operator
Country
US
Launch date
2025-02-23
Launch site
AFWTR
Launch vehicle
Mass (kg)
RCS (m²)

Purposes: comms

External: N2YO · Heavens-Above · Gunter

§ Orbital elements

Epoch: 2026-05-25T03:06:52.186752Z

Period
96.11 min
Inclination
70.0002°
Eccentricity
0.0004240
Mean motion
14.98338081 rev/d
Perigee alt
569.1 km
Apogee alt
575.0 km
Semi-major
6,950.2 km
B*
-4.9242e-4
RAAN
161.6503°
Arg perigee
269.8906°
Mean anomaly
90.1767°
Rev number
7,006

§ Raw data

STARLINK-329131 63098U 25037X   26145.12977068 -.00005965  00000+0 -49242-3 0  99912 63098  70.0002 161.6503 0004240 269.8906  90.1767 14.98338081 70067

JSON: /api/v1/satellites/63098 · /tle

For live sub-satellite position, see the globe view (requires WebGL).

§ Visibility from observer

Set your observer location to see the next 7 days of passes ≥ 10°. The values pass through the URL so the page stays shareable.

No JS? Fill the form by hand. The geolocation button needs JavaScript.